STARLINK-30258, 57608

Orbit data source: Space-Track

STARLINK-30258, 57608 is a payload satellite owned by SpaceX/Seattle (US) in LEO that was launched on Fri, 11 Aug 2023 UTC via an FALCON 9 launch vehicle from the Air Force Eastern Test Range (AFETR). Payload-class satellites include a variety of spacecraft equipped with specific instruments for various scientific and technological missions. These include communications satellites like Starlink; space stations such as the ISS; scientific satellites like the Hubble; Earth observation satellites from companies like Planet Labs, Umbra, and HawkEye 360; GPS; miniature CubeSats for education and research; and military/defense satellites.

Loading next visibility...
Identifier
57608, 2023-119G
Orbit
LEO
Country
Flag of USUS
Related business
Manufacturer
SpaceX/Seattle
Mission
Operational Commercial Communications
Bus & Motor
STARLINK V2M, Unknown motor
Mass
730 kg wet, ~700 kg dry
Launch date (UTC)
2023-08-11 (3 years ago)
Launch vehicle
FALCON 9
Launch site
Air Force Eastern Test Range (AFETR)
Object type
Payload
Rocket body
Debris
Shape & HBR
Box + 2 Pan, 17.7 m
Radar Cross Section
33.884 m², Large (>1 m²)

Expand to show TLE details & history
Last TLE update: 11 hours ago

TLE from 11 hours ago
0 STARLINK-30258
1 57608U 23119G   26094.92330097 -.00017804  00000-0 -63987-3 0  9994
2 57608  42.9962 293.8276 0001353 313.3566  46.7173 15.27535526147096
Epoch: 2026-04-04T22:09Z
TLE epoch observation values (Epoch: 2026-04-04T22:09:33.203Z)
Latitude
-0.00001°
Longitude
128.20313°
Altitude
482.321 km
Speed
7.626 km/s
True Right ascension
19h 35m 18s
True Declination
0° 00' 00"
Sunlit
Object was in daylight at epoch
Visualization orbit readout
Latitude
Unknown
Longitude
Unknown
Altitude
Unknown
Speed
Unknown
Apparent Right ascension
Unknown
Apparent Declination
Unknown
Sunlit
N/A
Visualization observer readout
Local Sidereal Time
15:29:21
Azimuth
Unknown
Elevation
Unknown
Doppler factor
Unknown
Orbital elements
Apogee altitude
486.057 km
Perigee altitude
484.199 km
Semi-major axis
6,863.265 km
Eccentricity
0.00014
Inclination
42.9962°
RAAN
293.8276°
Arg. of periapsis
313.3566°
True anomaly
46.72859°
Mean anomaly
46.7173°
Eccentric anomaly
46.72294°
Mean motion
3.81722 °/min
Orbital period
94.31 mins
BSTAR
-0.00063987
Loading maneuver chart data...
Computing Atmospheric mass density...
Loading historical data...
Loading historical data...
Loading historical data...
Loading historical data...
Loading historical data...
Loading historical data...
Loading historical data...

Documentation

Showing up to 5 results
|